• In Latvia
  • List of Countries
  • For 7 days
  • Water Temperature
  • Satellite Maps
  • Weather Map
  • Weather Widgets
  • user-avatar
    Login

    Hourly Weather Viesite

    Today, 21 February, Wednesday

    Time Temperature Precipitation Wind Pressure Humidity
    00:00 -9°C° 0 mm 1 mps 759 mmHg 94%
    01:00 -10°C° 0 mm 1 mps 759 mmHg 94%
    02:00 -10°C° 0 mm 1 mps 759 mmHg 94%
    03:00 -10°C° 0 mm 1 mps 759 mmHg 94%
    04:00 -11°C° 0 mm 1 mps 759 mmHg 94%
    05:00 -11°C° 0 mm 1 mps 759 mmHg 94%
    06:00 -11°C° 0 mm 1 mps 758 mmHg 94%
    07:00 -12°C° 0 mm 1 mps 758 mmHg 95%
    08:00 -15°C° 0 mm 2 mps 759 mmHg 94%
    09:00 -14°C° 0 mm 2 mps 759 mmHg 92%
    10:00 -13°C° 0 mm 2 mps 759 mmHg 90%
    11:00 -10°C° 0 mm 1 mps 759 mmHg 87%
    12:00 -9°C° 0 mm 1 mps 759 mmHg 85%
    13:00 -8°C° 0 mm 1 mps 759 mmHg 82%
    14:00 -8°C° 0 mm 2 mps 759 mmHg 78%
    15:00 -8°C° 0 mm 2 mps 759 mmHg 80%
    16:00 -9°C° 0 mm 2 mps 759 mmHg 81%
    17:00 -9°C° 0 mm 2 mps 759 mmHg 83%
    18:00 -10°C° 0 mm 2 mps 759 mmHg 85%
    19:00 -10°C° 0 mm 1 mps 759 mmHg 88%
    20:00 -11°C° 0 mm 1 mps 760 mmHg 91%
    21:00 -12°C° 0 mm 1 mps 760 mmHg 91%
    22:00 -12°C° 0 mm 1 mps 760 mmHg 92%
    23:00 -13°C° 0 mm 1 mps 761 mmHg 92%

    Tomorrow, 22 February, Thursday

    Time Temperature Precipitation Wind Pressure Humidity
    00:00 -13°C° 0 mm 1 mps 761 mmHg 93%
    01:00 -14°C° 0 mm 1 mps 761 mmHg 93%
    02:00 -14°C° 0 mm 1 mps 761 mmHg 93%
    03:00 -15°C° 0 mm 1 mps 761 mmHg 93%
    04:00 -15°C° 0 mm 1 mps 761 mmHg 94%
    05:00 -15°C° 0 mm 1 mps 761 mmHg 94%
    06:00 -15°C° 0 mm 1 mps 762 mmHg 94%
    07:00 -15°C° 0 mm 1 mps 762 mmHg 95%
    08:00 -16°C° 0 mm 1 mps 762 mmHg 95%
    09:00 -14°C° 0 mm 1 mps 762 mmHg 91%
    10:00 -12°C° 0 mm 1 mps 762 mmHg 87%
    11:00 -10°C° 0 mm 1 mps 762 mmHg 83%
    12:00 -9°C° 0 mm 1 mps 762 mmHg 80%
    13:00 -9°C° 0 mm 1 mps 762 mmHg 78%
    14:00 -8°C° 0 mm 1 mps 762 mmHg 76%
    15:00 -8°C° 0 mm 1 mps 762 mmHg 78%
    16:00 -9°C° 0 mm 1 mps 761 mmHg 81%
    17:00 -9°C° 0 mm 1 mps 761 mmHg 83%
    18:00 -10°C° 0 mm 0 mps 761 mmHg 86%
    19:00 -11°C° 0 mm 0 mps 761 mmHg 88%
    20:00 -12°C° 0 mm 0 mps 761 mmHg 90%
    21:00 -12°C° 0 mm 0 mps 761 mmHg 91%
    22:00 -13°C° 0 mm 1 mps 761 mmHg 92%
    23:00 -14°C° 0 mm 1 mps 761 mmHg 92%

    Day after tomorrow, 23 February, Friday

    Time Temperature Precipitation Wind Pressure Humidity
    00:00 -14°C° 0 mm 0 mps 761 mmHg 93%
    01:00 -14°C° 0 mm 0 mps 761 mmHg 93%
    02:00 -15°C° 0 mm 0 mps 761 mmHg 93%
    03:00 -15°C° 0 mm 0 mps 761 mmHg 94%
    04:00 -15°C° 0 mm 0 mps 761 mmHg 94%
    05:00 -15°C° 0 mm 0 mps 760 mmHg 94%
    06:00 -15°C° 0 mm 0 mps 760 mmHg 95%
    07:00 -15°C° 0 mm 0 mps 760 mmHg 95%
    08:00 -15°C° 0 mm 1 mps 760 mmHg 95%
    09:00 -13°C° 0 mm 1 mps 760 mmHg 91%
    10:00 -12°C° 0 mm 1 mps 760 mmHg 87%
    11:00 -10°C° 0 mm 1 mps 760 mmHg 84%
    12:00 -9°C° 0 mm 1 mps 759 mmHg 82%
    13:00 -8°C° 0 mm 1 mps 759 mmHg 80%
    14:00 -8°C° 0 mm 1 mps 758 mmHg 78%
    15:00 -8°C° 0 mm 1 mps 758 mmHg 81%
    16:00 -8°C° 0 mm 1 mps 758 mmHg 84%
    17:00 -9°C° 0 mm 1 mps 758 mmHg 87%
    18:00 -9°C° 0.2 mm 1 mps 758 mmHg 90%
    19:00 -10°C° 0.2 mm 1 mps 758 mmHg 92%
    20:00 -10°C° 0.2 mm 1 mps 758 mmHg 95%
    21:00 -10°C° 0.2 mm 1 mps 758 mmHg 95%
    22:00 -10°C° 0.2 mm 1 mps 759 mmHg 95%
    23:00 -10°C° 0.2 mm 1 mps 759 mmHg 95%

    24 February, Saturday

    Time Temperature Precipitation Wind Pressure Humidity
    00:00 -12°C° 0.1 mm 2 mps 759 mmHg 94%
    01:00 -13°C° 0.1 mm 2 mps 759 mmHg 94%
    02:00 -13°C° 0.1 mm 2 mps 760 mmHg 94%
    03:00 -13°C° 0.1 mm 2 mps 760 mmHg 93%
    04:00 -15°C° 0.1 mm 3 mps 761 mmHg 93%
    05:00 -15°C° 0.1 mm 3 mps 761 mmHg 93%
    06:00 -15°C° 0.1 mm 3 mps 762 mmHg 92%
    07:00 -15°C° 0.1 mm 3 mps 762 mmHg 91%
    08:00 -15°C° 0.1 mm 3 mps 763 mmHg 91%
    09:00 -15°C° 0 mm 3 mps 763 mmHg 88%
    10:00 -16°C° 0 mm 4 mps 764 mmHg 86%
    11:00 -16°C° 0 mm 4 mps 764 mmHg 84%
    12:00 -15°C° 0 mm 4 mps 764 mmHg 82%
    13:00 -14°C° 0 mm 4 mps 764 mmHg 80%
    14:00 -14°C° 0 mm 4 mps 764 mmHg 79%
    15:00 -13°C° 0 mm 3 mps 764 mmHg 80%
    16:00 -13°C° 0 mm 3 mps 764 mmHg 81%
    17:00 -14°C° 0 mm 3 mps 765 mmHg 83%
    18:00 -15°C° 0 mm 3 mps 765 mmHg 86%
    19:00 -15°C° 0 mm 2 mps 765 mmHg 89%
    20:00 -16°C° 0 mm 2 mps 765 mmHg 93%
    21:00 -17°C° 0 mm 2 mps 765 mmHg 94%
    22:00 -17°C° 0 mm 2 mps 765 mmHg 95%
    23:00 -18°C° 0 mm 2 mps 765 mmHg 95%

    25 February, Sunday

    Time Temperature Precipitation Wind Pressure Humidity
    00:00 -18°C° 0 mm 2 mps 766 mmHg 96%
    01:00 -19°C° 0 mm 2 mps 766 mmHg 96%
    02:00 -19°C° 0 mm 2 mps 766 mmHg 97%
    03:00 -19°C° 0 mm 2 mps 766 mmHg 97%
    04:00 -20°C° 0 mm 2 mps 765 mmHg 97%
    05:00 -20°C° 0 mm 2 mps 765 mmHg 97%
    06:00 -20°C° 0 mm 2 mps 765 mmHg 97%
    07:00 -20°C° 0 mm 2 mps 765 mmHg 97%
    08:00 -21°C° 0 mm 2 mps 765 mmHg 97%
    09:00 -19°C° 0 mm 2 mps 765 mmHg 93%
    10:00 -18°C° 0 mm 2 mps 765 mmHg 89%
    11:00 -16°C° 0 mm 2 mps 766 mmHg 85%
    12:00 -16°C° 0 mm 2 mps 765 mmHg 83%
    13:00 -15°C° 0 mm 2 mps 765 mmHg 81%
    14:00 -14°C° 0 mm 2 mps 765 mmHg 79%
    15:00 -14°C° 0 mm 2 mps 765 mmHg 81%
    16:00 -14°C° 0 mm 2 mps 764 mmHg 82%
    17:00 -14°C° 0 mm 2 mps 764 mmHg 83%
    18:00 -14°C° 0 mm 2 mps 764 mmHg 86%
    19:00 -15°C° 0 mm 2 mps 764 mmHg 90%
    20:00 -14°C° 0 mm 1 mps 764 mmHg 93%
    21:00 -14°C° 0 mm 1 mps 764 mmHg 94%
    22:00 -14°C° 0 mm 1 mps 763 mmHg 94%
    23:00 -15°C° 0 mm 1 mps 763 mmHg 95%

    26 February, Monday

    Time Temperature Precipitation Wind Pressure Humidity
    00:00 -16°C° 0.1 mm 2 mps 763 mmHg 95%
    01:00 -16°C° 0.1 mm 2 mps 763 mmHg 95%
    02:00 -15°C° 0.1 mm 2 mps 762 mmHg 95%
    03:00 -15°C° 0.1 mm 2 mps 762 mmHg 96%
    04:00 -15°C° 0.1 mm 2 mps 762 mmHg 96%
    05:00 -15°C° 0.1 mm 2 mps 761 mmHg 97%
    06:00 -15°C° 0 mm 2 mps 761 mmHg 97%
    07:00 -16°C° 0 mm 2 mps 761 mmHg 97%
    08:00 -16°C° 0 mm 2 mps 760 mmHg 97%
    09:00 -15°C° 0 mm 2 mps 760 mmHg 93%
    10:00 -14°C° 0 mm 2 mps 760 mmHg 89%
    11:00 -11°C° 0 mm 1 mps 760 mmHg 85%
    12:00 -12°C° 0 mm 2 mps 760 mmHg 82%
    13:00 -10°C° 0 mm 2 mps 759 mmHg 79%
    14:00 -10°C° 0 mm 2 mps 759 mmHg 76%
    15:00 -10°C° 0.1 mm 2 mps 759 mmHg 79%
    16:00 -10°C° 0.1 mm 2 mps 758 mmHg 81%
    17:00 -12°C° 0.1 mm 2 mps 758 mmHg 84%
    18:00 -13°C° 0.1 mm 2 mps 758 mmHg 86%
    19:00 -14°C° 0.1 mm 2 mps 758 mmHg 88%
    20:00 -15°C° 0.1 mm 2 mps 758 mmHg 90%
    21:00 -16°C° 0 mm 2 mps 758 mmHg 92%
    22:00 -18°C° 0 mm 2 mps 758 mmHg 93%
    23:00 -19°C° 0 mm 2 mps 758 mmHg 94%
    Show more